sat.trackr.live / text

‹ back to catalog

STARLINK-33999

NORAD 63857 · 2025-093X

PAYLOAD ACTIVE UNKNOWN

§ Identity

Operator
Country
US
Launch date
2025-05-07
Launch site
AFETR
Launch vehicle
Mass (kg)
RCS (m²)

Purposes: comms

External: N2YO · Heavens-Above · Gunter

§ Orbital elements

Epoch: 2026-05-24T23:53:35.368800Z

Period
94.27 min
Inclination
43.0043°
Eccentricity
0.0001397
Mean motion
15.27599775 rev/d
Perigee alt
482.0 km
Apogee alt
483.9 km
Semi-major
6,861.1 km
B*
7.8740e-4
RAAN
6.8025°
Arg perigee
257.7242°
Mean anomaly
102.3453°
Rev number
5,964

§ Raw data

STARLINK-339991 63857U 25093X   26144.99554825  .00021481  00000+0  78740-3 0  99962 63857  43.0043   6.8025 0001397 257.7242 102.3453 15.27599775 59644

JSON: /api/v1/satellites/63857 · /tle

For live sub-satellite position, see the globe view (requires WebGL).

§ Visibility from observer

Set your observer location to see the next 7 days of passes ≥ 10°. The values pass through the URL so the page stays shareable.

No JS? Fill the form by hand. The geolocation button needs JavaScript.